Location: Ambrosina
(19.9365°S, 43.9833°W)
Time: 01:03:45
(UTC+00:00)

Cosmos 1825 - Pass Details

Date: 11 May 2021
Orbit: 500 x 507 km, 82.5° (Epoch: 20 June)

Event Time Altitude Azimuth Distance (km) Brightness Sun altitude
Rises 21:07:38 0° 340° (NNW) 2,587 6.3 -9.5°
Reaches altitude 10° 21:09:51 10° 331° (NNW) 1,709 5.5 -10.0°
Maximum altitude 21:13:19 36° 264° (W) 813 3.9 -10.8°
Drops below altitude 10° 21:16:50 10° 195° (SSW) 1,726 4.9 -11.6°
Sets 21:19:05 0° 186° (S) 2,616 5.7 -12.1°
